Regional Weather Roundup
Issued by NWS

Home | Current Version | Previous Version | Graphics & Text | Print | Product List | Glossary On
Versions: 1 2 3 4 5 6 7 8 9 10 11 12 13 14 15 16 17 18 19 20 21 22 23 24 25 26 27 28 29 30 31 32 33 34 35 36 37 38 39 40 41 42 43 44 45 46 47 48 49 50
163
ASUS43 KIND 251709
RWRIN

WEATHER ROUNDUP FOR INDIANA
NATIONAL WEATHER SERVICE INDIANAPOLIS IN
100 PM EDT SUN SEP 25 2016

NOTE: "FAIR" INDICATES FEW OR NO CLOUDS BELOW 12,000 FEET WITH NO
SIGNIFICANT WEATHER AND/OR OBSTRUCTIONS TO VISIBILITY.

* - STATION DOES NOT REPORT WEATHER SUCH AS PRECIPITATION OR FOG.

+ - STATION NOT QUALITY CONTROLLED BY THE NATIONAL WEATHER SERVICE.
    USE DATA WITH CAUTION...ESPECIALLY DEWPOINT AND RELATIVE
    HUMIDITY OBSERVATIONS.

INZ001>003-010>013-019-020-251800-
NORTHWEST INDIANA

CITY           SKY/WX    TMP DP  RH WIND       PRES   REMARKS
GARY /AIRPORT/ MOSUNNY   79  64  61 SE9       30.07F
KNOX *+        MOSUNNY   77  34  20 SE5       30.09F
LA PORTE +     MOSUNNY   78  62  56 S7        30.10F
MICHIGAN CITY+ SUNNY     77  61  57 MISG      30.09F
MONTICELLO +   SUNNY     80  61  52 S7        30.08F
RENSSELAER +   SUNNY     82  64  54 S8        30.08F
VALPARAISO     MOSUNNY   79  63  57 S9        30.09F

$$

LMZ046-743>745-251800-
SOUTHERN LAKE MICHIGAN

STATION/POSITION TIME  TEMP    WIND        PRES    WAVE
                       AIR SEA DIR/SP/G            HT
                 (UTC) (F)     (DEG/KT/KT) (MB)    (FT)
BURNS HARBOR     1601   74     170/  8/ 16 1019.0S
MICHIGAN CITY    1600   71     130/ 12/ 15   N/A
5NW MICH CITY    1700   71 67  150/  6/  8   N/A     1

$$

INZ004-005-014>016-021>024-251800-
NORTH CENTRAL INDIANA

CITY           SKY/WX    TMP DP  RH WIND       PRES   REMARKS
ELKHART        SUNNY    N/A N/A N/A E6        30.12F
GOSHEN         PTSUNNY   76  56  49 SE9       30.12F
LOGANSPORT +   SUNNY     81  63  54 SE5       30.10F
PERU/GRISSOM   SUNNY     80  65  59 S5        30.09F
ROCHESTER +    SUNNY     81  64  57 SE6       30.11F
SOUTH BEND     MOSUNNY   75  59  57 SE9       30.10F
WARSAW +       SUNNY     73  52  46 S6        30.12F

$$

INZ006>009-017-018-025>027-251800-
NORTHEAST INDIANA

CITY           SKY/WX    TMP DP  RH WIND       PRES   REMARKS
ANGOLA *+      SUNNY     73  66  78 SE7       30.14F
AUBURN +       SUNNY     73  54  49 CALM      30.15S
FORT WAYNE     PTSUNNY   76  59  55 CALM      30.13F
HUNTINGTON +   SUNNY    N/A N/A N/A SE5       30.12F
KENDALLVILLE + MOSUNNY   74  55  52 SE6       30.15S

$$

INZ028-029-035-036-043>045-051>053-251800-
WEST CENTRAL INDIANA

CITY           SKY/WX    TMP DP  RH WIND       PRES   REMARKS
CRAWFORDSVL +  SUNNY     82  66  59 S6        30.09F
GREENCASTLE +  SUNNY     81  72  74 SE6       30.10F
LAFAYETTE      SUNNY     82  68  62 CALM      30.07F
TERRE HAUTE    SUNNY     83  68  60 S7        30.09F

$$

INZ030>032-037>040-046>048-054>057-064-065-251800-
CENTRAL INDIANA

CITY           SKY/WX    TMP DP  RH WIND       PRES   REMARKS
COLUMBUS       SUNNY     81  68  65 CALM      30.12F
FISHERS *+     SUNNY     81  70  69 NW3       30.11F
GREENWOOD *+   SUNNY    N/A N/A N/A S6        30.11F
INDIANAPOLIS   SUNNY     80  67  64 VRB5      30.10F
-EAGLE CREEK   SUNNY     80  66  62 MISG      30.10F
MARION +       SUNNY     79  62  56 SE6       30.12F
MT COMFORT *+  SUNNY     81  64  57 S3        30.12F
SHELBYVILLE    SUNNY     84  64  50 VRB3      30.10F
ZIONSVILLE +   SUNNY     79  66  64 S7        30.12F

$$

INZ033-034-041-042-049-050-058-059-251800-
EAST CENTRAL INDIANA

CITY           SKY/WX    TMP DP  RH WIND       PRES   REMARKS
MUNCIE         SUNNY     81  62  52 W5        30.12F

$$

INZ060-061-067>069-081>083-085>088-251800-
SOUTHWEST INDIANA

CITY           SKY/WX    TMP DP  RH WIND       PRES   REMARKS
EVANSVILLE     SUNNY     88  65  46 S5        30.09S
HUNTINGBURG *+   N/A     88  68  51 E5        30.09F
WASHINGTON +   SUNNY    N/A N/A N/A MISG      30.08F

$$

INZ062-063-066-070>080-084-089>092-251800-
SOUTH CENTRAL AND SOUTHEAST INDIANA

CITY           SKY/WX    TMP DP  RH WIND       PRES   REMARKS
BLOOMINGTON    SUNNY     82  68  62 SE6       30.10F
MADISON *+     SUNNY     82  63  51 CALM      30.13F
NORTH VERNON + SUNNY     82  72  69 CALM      30.12F
SEYMOUR +      SUNNY     84  64  51 CALM      30.10F

$$





USA.gov is the U.S. government's official web portal to all federal, state and local government web resources and services.